[[{"header":{"parameterUnit":"m.s-1","parameterCategory":1,"la1":30.2991,"la2":30.254,"lo1":-89.0895,"lo2":-89.0444,"dy":0.0017,"dx":0.0017,"nx":28,"ny":28,"refTime":"2023-04-08T21:00:00:Z","depth":0,"parameterNumber":2,"parameterNumberName":"U-component_of_WINDS"},"data":[0,0,0,0,0,0,0,0,0,0,0,0,0,0,0,0,0,0,0,0,0,0,0,0,0,0,0,0,0,0,0,0,0,0,0,0,0,0,0,0,0,0,0,0,0,0,0,0,0,0,0,0,0,0,0,0,0,0,-4.7777,-4.7777,0,-4.7785,-4.7785,-4.7786,-4.7684,-4.7682,-4.7679,-4.7676,-4.7685,-4.7687,-4.769,0,0,0,0,0,0,0,0,0,0,0,0,0,-4.7674,-4.7676,-4.7777,-4.7777,-4.7777,-4.7785,-4.7785,-4.7786,-4.7685,-4.7682,-4.7678,-4.7675,-4.7684,-4.7687,-4.769,0,0,0,0,0,0,0,0,0,0,0,0,0,-4.7704,-4.7677,-4.7777,-4.7728,-4.7724,-4.7785,-4.7785,-4.7786,-4.7686,-4.7681,-4.7677,-4.7673,-4.7683,-4.7687,-4.7691,-4.78,0,0,-4.7704,-4.7705,0,0,0,0,0,0,0,0,-4.7703,-4.7708,-4.7735,-4.7732,-4.7727,-4.773,-4.7752,-4.779,-4.7687,-4.77,-4.7676,-4.7671,-4.7703,-4.7705,-4.7716,-4.78,-4.78,-4.7704,-4.7707,-4.7708,-4.771,0,0,0,0,0,0,0,-4.7701,-4.7707,-4.778,-4.7736,-4.7731,-4.7706,-4.7705,-4.7759,-4.7725,-4.7699,-4.7691,-4.7694,-4.77,-4.7712,-4.7715,-4.78,-4.7704,-4.7708,-4.771,-4.7712,-4.7973,-4.7978,0,0,0,0,0,0,-4.7705,-4.7706,-4.778,-4.7781,-4.7704,-4.7711,-4.771,-4.7733,-4.7724,-4.7718,-4.7697,-4.7689,-4.7707,-4.771,-4.7715,-4.7841,-4.7708,-4.7712,-4.7715,-4.7969,-4.7974,-4.7979,0,0,0,0,0,0,-4.7704,-4.7713,-4.778,-4.7741,-4.7748,-4.7717,-4.7743,-4.7735,-4.7747,-4.7723,-4.7716,-4.7716,-4.7704,-4.7709,-4.7779,-4.784,-4.7714,-4.7718,-4.7964,-4.7971,-4.7977,-4.8095,0,0,0,0,0,0,-4.7701,-4.7713,-4.7754,-4.7743,-4.775,-4.7844,-4.7747,-4.7738,-4.7755,-4.7744,-4.7739,-4.7734,-4.7701,-4.7773,-4.7783,-4.7844,-4.7721,-4.7958,-4.7967,-4.7975,-4.8085,-4.8105,-4.8121,0,0,0,0,0,-4.7698,-4.7787,-4.7757,-4.7766,-4.7801,-4.7848,-4.7852,-4.7813,-4.776,-4.7801,-4.7785,-4.7734,-4.7832,-4.7782,-4.7792,-4.7854,-4.7954,-4.7964,-4.7974,-4.8077,-4.8101,-4.8121,0,0,0,0,0,0,-4.7806,-4.7785,-4.7751,-4.7839,-4.7846,-4.7831,-4.7881,-4.7839,-4.7861,-4.785,-4.78,-4.78,-4.7878,-4.7873,-4.7817,-4.7959,-4.7884,-4.7896,-4.7959,-4.7981,-4.7999,-4.7998,-4.7725,0,0,0,0,0,-4.784,-4.788,-4.7859,-4.7939,-4.7945,-4.7913,-4.7932,-4.7901,-4.7906,-4.7908,-4.7897,-4.7904,-4.7936,-4.7958,-4.7987,-4.8084,-4.8081,-4.8132,-4.815,-4.8165,-4.8177,-4.8227,-4.8249,-4.8012,-4.8012,-4.8012,0,0,-4.7911,-4.7905,-4.7933,-4.7961,-4.7963,-4.8005,-4.7916,-4.7964,-4.7995,-4.7915,-4.798,-4.7973,-4.7977,-4.8061,-4.8098,-4.806,-4.8242,-4.8178,-4.819,-4.8193,-4.824,-4.8262,-4.8282,-4.8019,-4.8018,-4.8016,0,0,-4.8062,-4.8062,-4.8128,-4.8131,-4.8135,-4.8113,-4.8129,-4.812,-4.8112,-4.8177,-4.8118,-4.8153,-4.821,-4.8215,-4.8225,-4.8378,-4.8332,-4.8389,-4.8483,-4.8533,-4.8551,-4.8568,-4.8621,-4.8642,-4.84,-4.8401,-4.8401,0,-4.815,-4.8211,-4.8167,-4.822,-4.8233,-4.8163,-4.823,-4.8235,-4.8249,-4.826,-4.8217,-4.8286,-4.8284,-4.8368,-4.8406,-4.8416,-4.8433,-4.8389,-4.8552,-4.8568,-4.8583,-4.8633,-4.8654,-4.8408,-4.8407,-4.8406,-4.8405,0,-4.8319,-4.8362,-4.8415,-4.8429,-4.8449,-4.8508,-4.8473,-4.8499,-4.8466,-4.8449,-4.8515,-4.851,-4.8536,-4.8554,-4.8523,-4.8634,-4.861,-4.8561,-4.8484,-4.8613,-4.866,-4.8679,-4.8417,-4.8415,-4.8413,-4.8411,0,0,-4.8538,-4.8527,-4.8547,-4.8552,-4.8551,-4.8583,-4.8639,-4.8664,-4.8687,-4.8698,-4.8743,-4.8793,-4.8747,-4.8759,-4.8728,-4.8772,-4.8892,-4.8716,-4.8716,-4.8749,-4.9014,-4.905,-4.9074,-4.8862,-4.8865,-4.8868,-4.9013,0,-4.8684,-4.8779,-4.8741,-4.8839,-4.8878,-4.8812,-4.886,-4.8865,-4.885,-4.8881,-4.8865,-4.89,-4.8838,-4.8844,-4.8885,-4.8869,-4.8945,-4.8858,-4.8903,-4.8905,-4.8903,-4.9098,-4.9137,-4.9274,-4.9031,-4.9034,-4.9036,0,-4.8867,-4.8885,-4.8988,-4.8979,-4.8994,-4.9038,-4.9058,-4.9088,-4.9092,-4.9078,-4.9091,-4.905,-4.9104,-4.9029,-4.9102,-4.9044,-4.906,-4.9055,-4.906,-4.9062,-4.8978,-4.9105,-4.9317,-4.9337,-4.9065,-4.9063,-4.9061,0,-4.9016,-4.9066,-4.9133,-4.914,-4.9132,-4.9165,-4.9163,-4.9162,-4.918,-4.9197,-4.9208,-4.9231,-4.9244,-4.9264,-4.923,-4.9178,-4.9308,-4.923,-4.9297,-4.9299,-4.9327,-4.9326,-4.9544,-4.9339,-4.9339,-4.9339,-4.9338,0,-4.9182,-4.9247,-4.92,-4.9241,-4.9312,-4.9268,-4.9339,-4.9329,-4.933,-4.9368,-4.9313,-4.935,-4.9303,-4.9336,-4.931,-4.9374,-4.938,-4.9371,-4.9363,-4.9375,-4.9376,-4.9384,-4.9374,-4.9344,-4.9343,-4.9342,-4.9341,0,-4.936,-4.9331,-4.94,-4.9387,-4.9385,-4.9437,-4.9426,-4.9463,-4.9445,-4.9494,-4.9503,-4.9474,-4.9509,-4.9477,-4.9512,-4.9494,-4.958,-4.9558,-4.9578,-4.9572,-4.9641,-4.9635,-4.9872,-4.9901,-4.9678,-4.9681,-4.9682,0,-4.9468,-4.9516,-4.9508,-4.953,-4.9531,-4.9567,-4.9584,-4.9543,-4.9563,-4.9571,-4.9607,-4.9638,-4.966,-4.972,-4.9702,-4.9727,-4.9706,-4.9787,-4.9709,-4.972,-4.9706,-4.9704,-4.9708,-4.9803,-4.9806,-4.9808,-4.981,0,-4.9663,-4.9646,-4.9673,-4.9696,-4.9718,-4.9734,-4.9745,-4.9766,-4.9723,-4.9749,-4.9784,-4.9802,-4.9836,-4.9867,-4.9887,-4.9885,-4.984,-4.9834,-4.9851,-4.9864,-4.9873,-4.9868,-4.9621,-4.9829,-4.9827,-4.9826,-4.9825,-4.9824,-4.9808,-4.9848,-4.9848,-4.988,-4.9884,-4.9896,-4.993,-4.9916,-4.9945,-4.997,-4.9943,-4.9987,-4.9988,-5.001,-5.0013,-5.0046,-5.0012,-5.0037,-5.0043,-5.005,-5.0059,-4.9869,-5.005,-5.0049,-5.0049,-5.0048,-5.0048,0,-4.9999,-4.9996,-5.0026,-5.0043,-5.0069,-5.0025,-5.0035,-5.0059,-5.0097,-5.0103,-5.0126,-5.0166,-5.0196,-5.0181,-5.0206,-5.0236,-5.0216,-5.0244,-5.0241,-5.0241,-5.0089,-5.0071,-5.0259,-5.0259,-5.0259,-5.0259,-5.0259,-5.0259,-5.0101,-5.0165,-5.0149,-5.0215,-5.0211,-5.0252,-5.0262,-5.0272,-5.0276,-5.0324,-5.0348,-5.0338,-5.0335,-5.036,-5.0385,-5.038,-5.0391,-5.0427,-5.0414,-5.0272,-5.0251,-5.0232,-5.0215,-5.043,-5.043,-5.0563,-5.0564,-5.0565]},{"header":{"parameterUnit":"m.s-1","parameterCategory":1,"la1":30.2991,"la2":30.254,"lo1":-89.0895,"lo2":-89.0444,"dy":0.0017,"dx":0.0017,"nx":28,"ny":28,"refTime":"2023-04-08T21:00:00:Z","depth":0,"parameterNumber":3,"parameterNumberName":"V-component_of_WINDS"},"data":[0,0,0,0,0,0,0,0,0,0,0,0,0,0,0,0,0,0,0,0,0,0,0,0,0,0,0,0,0,0,0,0,0,0,0,0,0,0,0,0,0,0,0,0,0,0,0,0,0,0,0,0,0,0,0,0,0,0,-4.9705,-4.9706,0,-4.9788,-4.9789,-4.979,-4.9757,-4.9755,-4.9753,-4.9752,-4.9832,-4.9836,-4.984,0,0,0,0,0,0,0,0,0,0,0,0,0,-4.9512,-4.9516,-4.9705,-4.9706,-4.9707,-4.9788,-4.9789,-4.979,-4.9758,-4.9755,-4.9753,-4.9751,-4.9831,-4.9836,-4.984,0,0,0,0,0,0,0,0,0,0,0,0,0,-4.9596,-4.9517,-4.9705,-4.9701,-4.9701,-4.9788,-4.9789,-4.9791,-4.9758,-4.9755,-4.9752,-4.975,-4.9829,-4.9835,-4.9841,-4.9935,0,0,-4.9859,-4.9862,0,0,0,0,0,0,0,0,-4.9591,-4.9603,-4.97,-4.9701,-4.9702,-4.976,-4.9751,-4.9839,-4.9759,-4.9736,-4.9752,-4.9748,-4.981,-4.9817,-4.9839,-4.9939,-4.9943,-4.9859,-4.9863,-4.9866,-4.9867,0,0,0,0,0,0,0,-4.9585,-4.9599,-4.9738,-4.9702,-4.9703,-4.9693,-4.9702,-4.9767,-4.9788,-4.9738,-4.9736,-4.9746,-4.981,-4.9834,-4.9841,-4.9944,-4.9859,-4.9865,-4.9868,-4.9871,-5.0124,-5.0127,0,0,0,0,0,0,-4.958,-4.9595,-4.9735,-4.974,-4.9638,-4.9699,-4.9708,-4.9744,-4.9787,-4.9791,-4.9749,-4.9745,-4.9825,-4.9834,-4.9844,-4.9956,-4.9866,-4.9871,-4.9875,-5.0121,-5.0124,-5.0128,0,0,0,0,0,0,-4.9576,-4.9593,-4.9732,-4.9667,-4.9684,-4.9705,-4.9745,-4.9747,-4.9771,-4.9796,-4.9799,-4.977,-4.9823,-4.9835,-4.9913,-4.9958,-4.9874,-4.9879,-5.0117,-5.0122,-5.0126,-5.0183,0,0,0,0,0,0,-4.9571,-4.9592,-4.9629,-4.9668,-4.9688,-4.9801,-4.9748,-4.9751,-4.9782,-4.9777,-4.9816,-4.982,-4.9822,-4.9904,-4.9919,-4.9965,-4.9884,-5.0113,-5.0119,-5.0125,-5.0177,-5.0189,-5.0199,0,0,0,0,0,-4.9564,-4.9641,-4.9631,-4.9648,-4.9735,-4.9804,-4.9815,-4.9817,-4.9786,-4.9822,-4.9838,-4.9818,-4.9951,-4.9912,-4.9928,-4.9977,-5.011,-5.0117,-5.0124,-5.0172,-5.0186,-5.0199,0,0,0,0,0,0,-4.9605,-4.9646,-4.9636,-4.9728,-4.9763,-4.9799,-4.9845,-4.9833,-4.9876,-4.987,-4.9869,-4.9878,-4.9958,-4.9975,-4.9931,-5.007,-5.0026,-5.0036,-5.0056,-5.007,-5.0081,-5.0075,-4.9889,0,0,0,0,0,-4.9625,-4.968,-4.9712,-4.979,-4.9808,-4.9824,-4.9854,-4.9853,-4.9888,-4.9903,-4.9924,-4.9958,-5.0007,-5.004,-5.0087,-5.0179,-5.0186,-5.0221,-5.0232,-5.0241,-5.025,-5.0299,-5.0314,-5.0151,-5.0151,-5.0151,0,0,-4.9667,-4.9696,-4.973,-4.9799,-4.9826,-4.9881,-4.9836,-4.9896,-4.9936,-4.9911,-4.9986,-5.0003,-5.0041,-5.0126,-5.0165,-5.0143,-5.0296,-5.025,-5.0257,-5.0261,-5.0307,-5.0323,-5.0336,-5.0156,-5.0155,-5.0155,0,0,-4.977,-4.9798,-4.9866,-4.9894,-4.9936,-4.9946,-4.9963,-5.0,-5.0011,-5.0087,-5.0068,-5.0115,-5.02,-5.0228,-5.0253,-5.0367,-5.0349,-5.0382,-5.0439,-5.0487,-5.05,-5.0511,-5.055,-5.0565,-5.0391,-5.0391,-5.0391,0,-4.9816,-4.9899,-4.9902,-4.9964,-4.9994,-4.9975,-5.0043,-5.0069,-5.0124,-5.0144,-5.012,-5.0226,-5.025,-5.0341,-5.0369,-5.039,-5.0407,-5.0377,-5.0498,-5.0509,-5.052,-5.0557,-5.0572,-5.0394,-5.0394,-5.0394,-5.0393,0,-4.9953,-5.0011,-5.006,-5.0115,-5.0151,-5.0215,-5.0226,-5.0261,-5.0257,-5.0269,-5.0345,-5.0373,-5.0425,-5.0447,-5.0442,-5.0537,-5.0522,-5.0498,-5.0453,-5.0539,-5.0574,-5.0589,-5.0399,-5.0398,-5.0397,-5.0396,0,0,-5.0084,-5.014,-5.0158,-5.0182,-5.0227,-5.0271,-5.0334,-5.0386,-5.0416,-5.0454,-5.0505,-5.0578,-5.0556,-5.0584,-5.0583,-5.0625,-5.0712,-5.0595,-5.0596,-5.0615,-5.0816,-5.0833,-5.085,-5.0701,-5.0704,-5.0706,-5.0812,0,-5.019,-5.0302,-5.0306,-5.0407,-5.046,-5.0443,-5.0497,-5.053,-5.0542,-5.0587,-5.0601,-5.0652,-5.062,-5.0636,-5.0678,-5.0693,-5.0752,-5.0685,-5.0747,-5.0749,-5.0737,-5.0868,-5.0887,-5.0986,-5.0826,-5.0829,-5.083,0,-5.0329,-5.0373,-5.048,-5.0517,-5.0539,-5.0588,-5.0636,-5.068,-5.0716,-5.0722,-5.0754,-5.0746,-5.0808,-5.0762,-5.0847,-5.0801,-5.0827,-5.0838,-5.0841,-5.0847,-5.0794,-5.0876,-5.1018,-5.1032,-5.0852,-5.085,-5.0849,0,-5.0412,-5.0498,-5.0573,-5.0595,-5.064,-5.0675,-5.0695,-5.0728,-5.0759,-5.08,-5.082,-5.0867,-5.0893,-5.0929,-5.0933,-5.0899,-5.1018,-5.0972,-5.1023,-5.1023,-5.1048,-5.1046,-5.1195,-5.1067,-5.1066,-5.1066,-5.1066,0,-5.053,-5.0596,-5.0611,-5.0657,-5.073,-5.0733,-5.0805,-5.0822,-5.0852,-5.0899,-5.0887,-5.0931,-5.0935,-5.0981,-5.0984,-5.1053,-5.1065,-5.107,-5.107,-5.1071,-5.107,-5.1087,-5.108,-5.107,-5.1069,-5.1068,-5.1068,0,-5.0635,-5.0649,-5.0729,-5.0766,-5.0776,-5.0828,-5.0859,-5.0902,-5.0913,-5.0974,-5.0988,-5.1005,-5.1058,-5.1067,-5.1128,-5.1131,-5.1213,-5.1206,-5.1201,-5.12,-5.125,-5.1245,-5.1414,-5.1436,-5.1294,-5.1295,-5.1297,0,-5.0709,-5.0759,-5.0802,-5.0834,-5.0856,-5.0907,-5.0939,-5.0944,-5.0977,-5.1022,-5.1059,-5.1111,-5.1152,-5.1237,-5.1254,-5.1301,-5.1295,-5.1351,-5.1302,-5.1301,-5.1294,-5.1291,-5.1295,-5.136,-5.1362,-5.1363,-5.1364,0,-5.0837,-5.0842,-5.0889,-5.0939,-5.0978,-5.1016,-5.1053,-5.1079,-5.1089,-5.1126,-5.1181,-5.1214,-5.1277,-5.1328,-5.1375,-5.1393,-5.138,-5.138,-5.1394,-5.1394,-5.1389,-5.1391,-5.1226,-5.1375,-5.1374,-5.1373,-5.1373,-5.1372,-5.0928,-5.0972,-5.1009,-5.1062,-5.109,-5.1125,-5.1167,-5.1184,-5.1231,-5.1284,-5.1283,-5.1343,-5.1376,-5.1438,-5.1459,-5.1505,-5.1486,-5.1507,-5.1512,-5.1517,-5.1521,-5.1383,-5.1513,-5.1513,-5.1513,-5.1513,-5.1512,0,-5.1056,-5.1079,-5.1127,-5.118,-5.1221,-5.1207,-5.1246,-5.1281,-5.1334,-5.1368,-5.1409,-5.1471,-5.1521,-5.1542,-5.159,-5.1622,-5.1617,-5.1635,-5.1632,-5.1636,-5.1536,-5.1518,-5.1638,-5.1638,-5.1638,-5.1638,-5.1638,-5.1638,-5.1127,-5.12,-5.1208,-5.1295,-5.1316,-5.1376,-5.14,-5.1431,-5.1458,-5.1528,-5.157,-5.1584,-5.1612,-5.1662,-5.1706,-5.1711,-5.1729,-5.1749,-5.1751,-5.1656,-5.1643,-5.1631,-5.1615,-5.1753,-5.1753,-5.1847,-5.1848,-5.1849]}]]